Location: ???? ???? ?????
(31.2680°N, 31.7283°E)
Time: 19:52:11
(UTC+00:00)

Meteor 2-2 Rocket - Pass Details

Date: 13 July 2020
Orbit: 852 x 929 km, 81.3° (Epoch: 06 August)

Event Time Altitude Azimuth Distance (km) Brightness Sun altitude
Rises 19:01:41 0° 356° (N) 3,463 8.1 -22.1°
Reaches altitude 10° 19:04:11 10° 0° (N) 2,512 7.2 -22.5°
Maximum altitude 19:09:49 61° 81° (E) 969 4.3 -23.3°
Enters shadow 19:10:41 54° 120° (ESE) 1,032 4.2 -23.5°
